| time (UTC) | temp C | wind direction | speed KPH | gust KPH | rain 1hr cm | rain 24hr cm | rain mn cm | humidity % | barometer mb |
| 20260505201501 | 9 | 262 | 25.7 | 41.8 | 0.00 | 0.00 | 0.00 | 89 | 1014.0 |
| 20260505200100 | 9 | 226 | 24.1 | 41.8 | 0.00 | 0.00 | 0.00 | 89 | 1014.1 |
| 20260505194604 | 9 | 245 | 20.9 | 37.0 | 0.00 | 0.00 | 0.00 | 87 | 1014.0 |
| 20260505193100 | 10 | 274 | 20.9 | 37.0 | 0.00 | 0.00 | 0.00 | 87 | 1014.1 |
| 20260505191605 | 9 | 242 | 22.5 | 35.4 | 0.00 | 0.00 | 0.00 | 87 | 1014.3 |
| 20260505190116 | 9 | 193 | 24.1 | 40.2 | 0.00 | 0.00 | 0.00 | 88 | 1014.3 |
| 20260505184609 | 10 | 200 | 25.7 | 40.2 | 0.00 | 0.00 | 0.00 | 85 | 1014.3 |
| 20260505183058 | 10 | 215 | 20.9 | 38.6 | 0.00 | 0.00 | 0.00 | 85 | 1014.3 |
| 20260505181600 | 10 | 243 | 19.3 | 37.0 | 0.00 | 0.00 | 0.00 | 86 | 1014.4 |
| 20260505180056 | 10 | 248 | 22.5 | 32.2 | 0.00 | 0.00 | 0.00 | 84 | 1014.4 |
| 20260505174658 | 10 | 280 | 20.9 | 38.6 | 0.00 | 0.00 | 0.00 | 85 | 1014.4 |
| 20260505173055 | 10 | 233 | 22.5 | 37.0 | 0.00 | 0.00 | 0.00 | 85 | 1014.4 |
| 20260505171555 | 9 | 211 | 17.7 | 30.6 | 0.00 | 0.00 | 0.00 | 86 | 1014.5 |
| 20260505170105 | 10 | 253 | 20.9 | 35.4 | 0.00 | 0.00 | 0.00 | 85 | 1014.5 |
| 20260505164554 | 10 | 269 | 24.1 | 38.6 | 0.00 | 0.00 | 0.00 | 83 | 1014.5 |
| 20260505163059 | 10 | 252 | 17.7 | 29.0 | 0.00 | 0.00 | 0.00 | 82 | 1014.5 |
| 20260505161551 | 10 | 267 | 12.9 | 27.4 | 0.00 | 0.00 | 0.00 | 83 | 1014.6 |
| 20260505153102 | 10 | 245 | 19.3 | 35.4 | 0.00 | 0.00 | 0.00 | 82 | 1014.5 |
| 20260505151548 | 10 | 238 | 20.9 | 30.6 | 0.00 | 0.00 | 0.00 | 83 | 1014.4 |
| 20260505124524 | 8 | 231 | 17.7 | 40.2 | 0.00 | 0.00 | 0.00 | 84 | 1013.6 |
| 20260505123034 | 8 | 262 | 20.9 | 40.2 | 0.00 | 0.00 | 0.00 | 85 | 1013.6 |
| 20260505121523 | 8 | 226 | 19.3 | 38.6 | 0.00 | 0.00 | 0.00 | 84 | 1013.5 |
| 20260505120023 | 8 | 227 | 14.5 | 30.6 | 0.00 | 0.00 | 0.00 | 84 | 1013.3 |
| 20260505114514 | 8 | 231 | 16.1 | 37.0 | 0.00 | 0.00 | 0.00 | 84 | 1013.2 |
| 20260505113012 | 8 | 255 | 16.1 | 29.0 | 0.00 | 0.00 | 0.00 | 85 | 1012.9 |
| 20260505111516 | 7 | 289 | 14.5 | 27.4 | 0.00 | 0.00 | 0.00 | 84 | 1013.0 |
| 20260505101503 | 6 | 278 | 11.3 | 25.7 | 0.00 | 0.00 | 0.00 | 89 | 1012.6 |
| 20260505100110 | 5 | 264 | 12.9 | 22.5 | 0.00 | 0.00 | 0.00 | 90 | 1012.6 |
| 20260505094608 | 5 | 249 | 11.3 | 25.7 | 0.00 | 0.00 | 0.00 | 91 | 1012.3 |
| 20260505093059 | 5 | 244 | 11.3 | 22.5 | 0.00 | 0.00 | 0.00 | 90 | 1012.4 |
| 20260505091556 | 5 | 333 | 11.3 | 20.9 | 0.00 | 0.00 | 0.00 | 90 | 1012.2 |
| 20260505090108 | 5 | 262 | 12.9 | 25.7 | 0.00 | 0.00 | 0.00 | 90 | 1012.2 |
| 20260505084553 | 5 | 274 | 12.9 | 24.1 | 0.00 | 0.00 | 0.00 | 90 | 1012.0 |
| 20260505083106 | 5 | 246 | 12.9 | 24.1 | 0.00 | 0.00 | 0.00 | 90 | 1011.9 |
| 20260505081551 | 5 | 250 | 12.9 | 20.9 | 0.00 | 0.00 | 0.00 | 89 | 1011.8 |
| 20260505080054 | 5 | 266 | 11.3 | 22.5 | 0.00 | 0.00 | 0.00 | 89 | 1011.8 |
| 20260505074547 | 5 | 253 | 12.9 | 27.4 | 0.00 | 0.00 | 0.00 | 89 | 1011.6 |
| 20260505073055 | 5 | 268 | 14.5 | 22.5 | 0.00 | 0.00 | 0.00 | 89 | 1011.8 |
| 20260505071543 | 5 | 245 | 12.9 | 27.4 | 0.00 | 0.00 | 0.00 | 88 | 1011.5 |
| 20260505070051 | 5 | 240 | 14.5 | 25.7 | 0.00 | 0.00 | 0.00 | 88 | 1011.4 |
| 20260505064537 | 6 | 242 | 11.3 | 27.4 | 0.00 | 0.00 | 0.00 | 87 | 1011.1 |
| 20260505063036 | 6 | 248 | 8.0 | 20.9 | 0.00 | 0.00 | 0.00 | 86 | 1010.8 |
| 20260505061535 | 6 | 246 | 12.9 | 22.5 | 0.00 | 0.00 | 0.00 | 86 | 1011.1 |
| 20260505060035 | 6 | 242 | 6.4 | 19.3 | 0.00 | 0.00 | 0.00 | 86 | 1011.0 |
| 20260505054533 | 6 | 264 | 12.9 | 27.4 | 0.00 | 0.05 | 0.00 | 86 | 1010.7 |
| 20260505053031 | 6 | 278 | 14.5 | 29.0 | 0.00 | 0.05 | 0.00 | 86 | 1010.6 |
| 20260505051530 | 6 | 350 | 14.5 | 27.4 | 0.00 | 0.05 | 0.00 | 84 | 1010.5 |
| 20260505041537 | 5 | 238 | 12.9 | 19.3 | 0.00 | 0.08 | 0.00 | 88 | 1010.2 |
| 20260505040018 | 5 | 245 | 8.0 | 14.5 | 0.00 | 0.08 | 0.00 | 88 | 1010.0 |
| 20260505034515 | 5 | 266 | 4.8 | 14.5 | 0.00 | 0.18 | 0.00 | 87 | 1009.8 |
| 20260505033013 | 6 | 250 | 6.4 | 16.1 | 0.00 | 0.18 | 0.00 | 87 | 1009.4 |
| 20260505031510 | 6 | 250 | 6.4 | 16.1 | 0.00 | 0.18 | 0.00 | 87 | 1009.2 |
| 20260505030006 | 6 | 274 | 6.4 | 19.3 | 0.00 | 0.18 | 0.00 | 87 | 1009.0 |
| 20260505024505 | 6 | 290 | 8.0 | 17.7 | 0.00 | 0.20 | 0.18 | 86 | 1008.7 |
| 20260505023003 | 6 | 295 | 6.4 | 22.5 | 0.00 | 0.20 | 0.18 | 86 | 1008.6 |
| 20260505021600 | 6 | 253 | 9.7 | 19.3 | 0.00 | 0.20 | 0.18 | 87 | 1008.4 |
| 20260505020058 | 6 | 247 | 9.7 | 20.9 | 0.00 | 0.20 | 0.18 | 87 | 1008.2 |
| 20260505014618 | 5 | 252 | 9.7 | 17.7 | 0.00 | 0.23 | 0.18 | 88 | 1008.1 |
| 20260505013055 | 5 | 253 | 6.4 | 16.1 | 0.00 | 0.23 | 0.18 | 88 | 1007.9 |
| 20260505011603 | 5 | 262 | 6.4 | 22.5 | 0.00 | 0.23 | 0.18 | 88 | 1007.8 |
| 20260505010052 | 5 | 302 | 12.9 | 25.7 | 0.00 | 0.23 | 0.18 | 88 | 1007.7 |
| 20260505004551 | 5 | 307 | 12.9 | 25.7 | 0.00 | 0.25 | 0.18 | 89 | 1007.6 |
| 20260505003049 | 5 | 273 | 14.5 | 24.1 | 0.00 | 0.25 | 0.18 | 89 | 1007.4 |
| 20260505001602 | 5 | 262 | 8.0 | 19.3 | 0.00 | 0.25 | 0.18 | 89 | 1007.2 |
| 20260505000104 | 6 | 242 | 9.7 | 25.7 | 0.00 | 0.25 | 0.18 | 88 | 1007.2 |
| 20260504234603 | 6 | 250 | 11.3 | 27.4 | 0.00 | 0.33 | 0.18 | 88 | 1006.9 |
| 20260504233050 | 6 | 271 | 14.5 | 27.4 | 0.00 | 0.33 | 0.18 | 88 | 1006.8 |
| 20260504231541 | 6 | 247 | 9.7 | 20.9 | 0.00 | 0.33 | 0.18 | 88 | 1006.6 |
| 20260504230041 | 5 | 266 | 8.0 | 22.5 | 0.00 | 0.33 | 0.18 | 89 | 1006.4 |
| 20260504224548 | 6 | 243 | 12.9 | 32.2 | 0.00 | 0.64 | 0.18 | 88 | 1006.3 |
| 20260504223044 | 6 | 246 | 14.5 | 29.0 | 0.00 | 0.64 | 0.18 | 87 | 1006.4 |
| 20260504221538 | 6 | 270 | 14.5 | 30.6 | 0.00 | 0.64 | 0.18 | 85 | 1006.5 |
| 20260504220037 | 6 | 337 | 12.9 | 29.0 | 0.00 | 0.64 | 0.18 | 85 | 1006.2 |
| 20260504214534 | 6 | 248 | 14.5 | 38.6 | 0.00 | 0.76 | 0.18 | 84 | 1005.9 |
| 20260504213053 | 7 | 240 | 16.1 | 30.6 | 0.00 | 0.76 | 0.18 | 82 | 1005.7 |
| 20260504211532 | 7 | 246 | 14.5 | 29.0 | 0.00 | 0.76 | 0.18 | 79 | 1005.5 |
| 20260504210031 | 8 | 246 | 14.5 | 29.0 | 0.00 | 0.76 | 0.18 | 75 | 1005.4 |
| 20260504204531 | 8 | 269 | 14.5 | 30.6 | 0.00 | 0.89 | 0.18 | 74 | 1005.5 |
| 20260504203034 | 9 | 288 | 17.7 | 35.4 | 0.00 | 0.89 | 0.18 | 72 | 1005.3 |